This is the latest recevied weather packets stored in our database for station/object WO5CID. If no packets are shown the sender has not sent any weather packets the latest 10 day(s).
| Time | Temp. | Humidity | Pressure | Rain* | Wind** | Luminosity | Snow |
|---|---|---|---|---|---|---|---|
| 1778173175 | 35° C | 30% | 1014.7 hPa | 0 mm | - | 929 W/m² | - |
| 1778172871 | 35° C | 30% | 1014.6 hPa | 0 mm | - | 930 W/m² | - |
| 1778172567 | 35° C | 30% | 1014.7 hPa | 0 mm | - | 928 W/m² | - |
| 1778172264 | 35° C | 31% | 1014.7 hPa | 0 mm | - | 930 W/m² | - |
| 1778171961 | 35° C | 30% | 1014.5 hPa | 0 mm | - | 916 W/m² | - |
| 1778171658 | 34.44° C | 34% | 1014.6 hPa | 0 mm | - | 921 W/m² | - |
| 1778171355 | 34.44° C | 34% | 1014.5 hPa | 0 mm | - | 921 W/m² | - |
| 1778171050 | 34.44° C | 35% | 1014.7 hPa | 0 mm | - | 914 W/m² | - |
| 1778170748 | 33.89° C | 35% | 1014.6 hPa | 0 mm | - | 912 W/m² | - |
| 1778170444 | 33.89° C | 35% | 1014.7 hPa | 0 mm | - | 905 W/m² | - |
| 1778170141 | 33.89° C | 35% | 1014.7 hPa | 0 mm | - | 900 W/m² | - |
| 1778169836 | 34.44° C | 36% | 1014.6 hPa | 0 mm | - | 895 W/m² | - |
| 1778169533 | 33.89° C | 38% | 1015 hPa | 0 mm | - | 889 W/m² | - |
| 1778169229 | 34.44° C | 36% | 1014.5 hPa | 0 mm | - | 877 W/m² | - |
| 1778168926 | 33.89° C | 37% | 1014.7 hPa | 0 mm | - | 866 W/m² | - |
| 1778168623 | 33.33° C | 37% | 1014.9 hPa | 0 mm | - | 860 W/m² | - |
| 1778168361 | 33.89° C | 39% | 1014.8 hPa | 0 mm | - | 853 W/m² | - |
| 1778168320 | 33.89° C | 39% | 1014.8 hPa | 0 mm | - | 853 W/m² | - |
| 1778168016 | 33.33° C | 38% | 1014.6 hPa | 0 mm | - | 847 W/m² | - |
| 1778167881 | 33.33° C | 38% | 1014.6 hPa | 0 mm | - | 834 W/m² | - |
| 1778167730 | 32.78° C | 38% | 1014.8 hPa | 0 mm | - | 827 W/m² | - |
| 1778167713 | 33.33° C | 38% | 1014.6 hPa | 0 mm | - | 834 W/m² | - |
| 1778167409 | 32.78° C | 38% | 1014.8 hPa | 0 mm | - | 827 W/m² | - |
| 1778167217 | 32.78° C | 39% | 1014.6 hPa | 0 mm | - | 814 W/m² | - |
| 1778167105 | 32.78° C | 39% | 1014.6 hPa | 0 mm | - | 814 W/m² | - |
* Rain latest hour (hover to see other rain measurements)
** Current wind speed in m/s (hover to see current wind gust speed)